Location: Kaseke
(18.0171°S, 31.0526°E)
Time: 12:28:11
(UTC+00:00)

Delta 142 - Pass Details

Date: 14 July 2020
Orbit: 548 x 1589 km, 28.4° (Epoch: 07 August)

Event Time Altitude Azimuth Distance (km) Brightness Sun altitude
Exits shadow 02:33:54 66° 283° (WNW) 1,010 4.3 -26.4°
Maximum altitude 02:34:41 74° 335° (NNW) 986 4.4 -26.2°
Drops below altitude 10° 02:42:10 10° 59° (ENE) 3,090 8.1 -24.5°
Sets 02:45:25 0° 60° (ENE) 4,220 9.1 -23.8°
